New Iberia, LA

1:48 PM CDT on October 21, 2017 (GMT -0500)
Acadiana Regional

Weather History for KARA - March, 2013

Change the Weather History Date:

Wednesday, March 27, 2013

  Actual Average Record
Temperature  
Mean Temperature 52 °F 64 °F  
Max Temperature 66 °F 75 °F 85 °F (2011)
Min Temperature 38 °F 53 °F 29 °F (1955)
Degree Days  
Heating Degree Days 13 3  
Month to date heating degree days 190 135  
Since 1 July heating degree days 1077 1351  
Cooling Degree Days 0 2  
Month to date cooling degree days 37 39  
Year to date cooling degree days 85 70  
Growing Degree Days 2 (Base 50)    
Moisture  
Dew Point 31 °F    
Average Humidity 48    
Maximum Humidity 71    
Minimum Humidity 24    
Precipitation  
Precipitation 0.00 in 0.13 in 0.97 in (1949)
Month to date precipitation 2.06 3.29  
Year to date precipitation 18.81 12.70  
Sea Level Pressure  
Sea Level Pressure 30.37 in    
Wind  
Wind Speed 5 mph (East)    
Max Wind Speed 15 mph    
Max Gust Speed 64 mph    
Visibility 10 miles    
Events      
T = Trace of Precipitation, MM = Missing Value Source: NWS Daily Summary

Daily Weather History Graph

Daily Weather History Graph

Search for Another Location

Airport or City:

Trip Planner

Search our weather history database for the weather conditions in past years. The results will help you decide how hot, cold, wet, or windy it might be!

Date:

Astronomy

Mar. 27, 2013 Rise Set
Actual Time 7:02 AM CDT 7:23 PM CDT
Civil Twilight 6:38 AM CDT 7:47 PM CDT
Nautical Twilight 6:10 AM CDT 8:15 PM CDT
Astronomical Twilight 5:42 AM CDT 8:43 PM CDT
Moon 8:01 PM CDT (3/27) 6:57 AM CDT (3/27)
Length of Visible Light 13h 08m
Length of Day
12h 20m
Full, 100% of the Moon is Illuminated
Mar 27
Full
Apr 2
Last Quarter
Apr 10
New
Apr 18
First Quarter
Apr 25
Full

Hourly Weather History & Observations

Time (CDT) Temp. Windchill Dew Point Humidity Pressure Visibility Wind Dir Wind Speed Gust Speed Precip Events Conditions
12:53 AM 43.0 °F 39.5 °F 30.0 °F 60% 30.38 in 10.0 mi East 5.8 mph - N/A   Clear
1:53 AM 43.0 °F 39.5 °F 30.0 °F 60% 30.39 in 10.0 mi East 5.8 mph - N/A   Clear
2:53 AM 41.0 °F 38.0 °F 30.0 °F 65% 30.38 in 10.0 mi East 4.6 mph - N/A   Clear
3:53 AM 39.9 °F 36.7 °F 28.9 °F 65% 30.38 in 10.0 mi East 4.6 mph - N/A   Clear
4:53 AM 39.9 °F 36.7 °F 30.0 °F 68% 30.38 in 10.0 mi ENE 4.6 mph - N/A   Clear
5:53 AM 39.0 °F 35.7 °F 30.0 °F 70% 30.38 in 10.0 mi ENE 4.6 mph - N/A   Clear
6:53 AM 39.0 °F 35.7 °F 30.0 °F 70% 30.41 in 10.0 mi ENE 4.6 mph - N/A   Clear
7:53 AM 42.1 °F 38.4 °F 33.1 °F 70% 30.43 in 10.0 mi East 5.8 mph - N/A   Clear
8:53 AM 48.0 °F - 33.1 °F 56% 30.45 in 10.0 mi East 8.1 mph - N/A   Clear
9:53 AM 53.1 °F - 28.9 °F 40% 30.46 in 10.0 mi East 6.9 mph - N/A   Clear
10:53 AM 55.9 °F - 26.1 °F 32% 30.45 in 10.0 mi Calm Calm - N/A   Clear
11:53 AM 59.0 °F - 27.0 °F 29% 30.44 in 10.0 mi NNE 5.8 mph - N/A   Clear
12:53 PM 61.0 °F - 27.0 °F 27% 30.42 in 10.0 mi NE 8.1 mph - N/A   Clear
1:53 PM 61.0 °F - 26.1 °F 26% 30.39 in 10.0 mi NNW 5.8 mph - N/A   Clear
2:53 PM 64.0 °F - 27.0 °F 25% 30.35 in 10.0 mi Variable 3.5 mph - N/A   Clear
3:53 PM 64.0 °F - 26.1 °F 24% 30.32 in 10.0 mi Variable 5.8 mph - N/A   Clear
4:53 PM 64.9 °F - 26.1 °F 23% 30.32 in 10.0 mi Calm Calm - N/A   Clear
5:53 PM 62.1 °F - 33.1 °F 34% 30.31 in 10.0 mi South 8.1 mph - N/A   Clear
6:53 PM 59.0 °F - 34.0 °F 39% 30.29 in 10.0 mi SSE 8.1 mph - N/A   Clear
7:53 PM 53.1 °F - 37.9 °F 57% 30.29 in 10.0 mi SSW 6.9 mph - N/A   Clear
8:53 PM 51.1 °F - 37.9 °F 61% 30.30 in 10.0 mi SSW 3.5 mph - N/A   Clear
9:53 PM 48.0 °F - 37.9 °F 68% 30.32 in 10.0 mi Calm Calm - N/A   Clear
10:53 PM 48.9 °F - 39.0 °F 69% 30.33 in 10.0 mi Calm Calm - N/A   Clear
11:53 PM 46.9 °F - 37.9 °F 71% 30.33 in 10.0 mi SE 3.5 mph - N/A   Clear